Skip Page Navigation
NASA JPL Caltech
NASA Logo - Jet Propulsion Laboratory + View the NASA Portal
+ Center for Near-Earth Object Studies
JPL Home Earth Solar System Stars & Galaxies Technology
JPL Solar System Dynamics
BODIES ORBITS EPHEMERIDES TOOLS PHYSICAL DATA DISCOVERY FAQ SITE MAP
JPL Small-Body Database Browser
Search: [ help ]  
2310 Olshaniya (1974 SU4)
Classification: Main-belt Asteroid          SPK-ID: 2002310
Ephemeris | Orbit Diagram | Orbital Elements | Mission Design | Physical Parameters | Discovery Circumstances | Close-Approach Data ]

[ hide orbit diagram ]

For accurate long-term ephemerides, please instead use our Horizons system.This orbit viewer was implemented using two-body methods, and hence should not be used for determining accurate long-term trajectories (over several years or decades) or planetary encounter circumstances.


Orbital Elements at Epoch 2459200.5 (2020-Dec-17.0) TDB
Reference: JPL 43 (heliocentric ecliptic J2000)
 Element Value Uncertainty (1-sigma)   Units 
e .1615246019985155 1.9308e-08  
a 3.14437434458693 1.2058e-08 au
q 2.636480530043183 6.1136e-08 au
i 2.64993574608591 1.0336e-06 deg
node 124.1242185469029 1.0842e-05 deg
peri 330.7057419360655 1.4212e-05 deg
M 38.01782436256195 5.6495e-06 deg
tp 2458985.427663957896
(2020-May-15.92766396)
3.1374e-05 TDB
period 2036.572115141936
5.58
1.1715e-05
3.207e-08
d
yr
n .1767676171756433 1.0168e-09 deg/d
Q 3.652268159130677 1.4006e-08 au
  Orbit Determination Parameters
   # obs. used (total)      2990  
   data-arc span      22680 days (62.09 yr)  
   first obs. used      1959-01-31  
   last obs. used      2021-03-06  
   planetary ephem.      DE431  
   SB-pert. ephem.      SB431-N16  
   condition code      0  
   norm. resid. RMS      .46704  
   source      ORB  
   producer      Otto Matic  
   solution date      2021-Mar-16 13:47:35  

Additional Information
 Earth MOID = 1.65343 au 
 Jupiter MOID = 1.53237 au 
 T_jup = 3.187 
[ show covariance matrix ]

Ephemeris | Orbit Diagram | Orbital Elements | Mission Design | Physical Parameters | Discovery Circumstances | Close-Approach Data ]

Physical Parameter Table
Parameter Symbol Value Units Sigma Reference Notes
absolute magnitude H 11.79   n/a E2021B10  
diameter diameter 26.395 km 0.163 urn:nasa:pds:neowise_diameters_albedos::2.0[mainbelt] (http://adsabs.harvard.edu/abs/2014ApJ...791..121M)  
rotation period rot_per 16.169 h n/a LCDB (Rev. 2020-October); Warner et al., 2009 Published Reference List:
[Liu, J. (2016) Minor Planet Bull. 43, 98-99.]
geometric albedo albedo 0.065   0.007 urn:nasa:pds:neowise_diameters_albedos::2.0[mainbelt] (http://adsabs.harvard.edu/abs/2014ApJ...791..121M)  

2310 Olshaniya (1974 SU4)          Discovered 1974-Sep-26 by Zhuravleva, L. at Nauchnyj
Reference: DISCOVERY.DBLast Updated: 2003-08-29

[ show close-approach data ]
Alternate Designations
 1974 SU4 = 1959 CZ = 1971 FS = 1977 JJ 
Ephemeris | Orbit Diagram | Orbital Elements | Mission Design | Physical Parameters | Discovery Circumstances | Close-Approach Data ]
ABOUT SSD CREDITS/AWARDS PRIVACY/COPYRIGHT GLOSSARY LINKS
FirstGov 2021-Apr-12 20:12 UT
(server date/time)  
NASA Home Page
Site Manager:   Ryan S. Park
Webmaster  Alan B. Chamberlin